#	"Date Time, GMT-07:00"	Temp C
1	8/12/2014 12:33	23.773
2	8/12/2014 12:48	23.388
3	8/12/2014 13:03	23.1
4	8/12/2014 13:18	23.1
5	8/12/2014 13:33	23.1
6	8/12/2014 13:48	23.1
7	8/12/2014 14:03	23.292
8	8/12/2014 14:18	23.484
9	8/12/2014 14:33	23.677
10	8/12/2014 14:48	23.869
11	8/12/2014 15:03	24.062
12	8/12/2014 15:18	24.351
13	8/12/2014 15:33	24.545
14	8/12/2014 15:48	24.641
15	8/12/2014 16:03	24.738
16	8/12/2014 16:18	24.738
17	8/12/2014 16:33	24.738
18	8/12/2014 16:48	24.641
19	8/12/2014 17:03	24.545
20	8/12/2014 17:18	24.448
21	8/12/2014 17:33	24.448
22	8/12/2014 17:48	24.738
23	8/12/2014 18:03	25.028
24	8/12/2014 18:18	25.416
25	8/12/2014 18:33	25.708
26	8/12/2014 18:48	26.097
27	8/12/2014 19:03	26.39
28	8/12/2014 19:18	26.585
29	8/12/2014 19:33	26.781
30	8/12/2014 19:48	26.879
31	8/12/2014 20:03	26.977
32	8/12/2014 20:18	26.977
33	8/12/2014 20:33	26.977
34	8/12/2014 20:48	26.977
35	8/12/2014 21:03	26.977
36	8/12/2014 21:18	26.879
37	8/12/2014 21:33	26.781
38	8/12/2014 21:48	26.683
39	8/12/2014 22:03	26.488
40	8/12/2014 22:18	26.39
41	8/12/2014 22:33	26.292
42	8/12/2014 22:48	26.097
43	8/12/2014 23:03	25.902
44	8/12/2014 23:18	25.708
45	8/12/2014 23:33	25.61
46	8/12/2014 23:48	25.416
47	8/13/2014 0:03	25.222
48	8/13/2014 0:18	24.931
49	8/13/2014 0:33	24.835
50	8/13/2014 0:48	24.641
51	8/13/2014 1:03	24.448
52	8/13/2014 1:18	24.255
53	8/13/2014 1:33	24.062
54	8/13/2014 1:48	23.869
55	8/13/2014 2:03	23.677
56	8/13/2014 2:18	23.484
57	8/13/2014 2:33	23.196
58	8/13/2014 2:48	23.004
59	8/13/2014 3:03	22.812
60	8/13/2014 3:18	22.525
61	8/13/2014 3:33	22.333
62	8/13/2014 3:48	22.142
63	8/13/2014 4:03	21.951
64	8/13/2014 4:18	21.76
65	8/13/2014 4:33	21.569
66	8/13/2014 4:48	21.378
67	8/13/2014 5:03	21.091
68	8/13/2014 5:18	20.996
69	8/13/2014 5:33	20.805
70	8/13/2014 5:48	20.615
71	8/13/2014 6:03	20.424
72	8/13/2014 6:18	20.234
73	8/13/2014 6:33	20.138
74	8/13/2014 6:48	19.948
75	8/13/2014 7:03	19.853
76	8/13/2014 7:18	19.662
77	8/13/2014 7:33	19.567
78	8/13/2014 7:48	19.472
79	8/13/2014 8:03	19.377
80	8/13/2014 8:18	19.377
81	8/13/2014 8:33	19.282
82	8/13/2014 8:48	19.187
83	8/13/2014 9:03	19.187
84	8/13/2014 9:18	19.187
85	8/13/2014 9:33	19.377
86	8/13/2014 9:48	19.662
87	8/13/2014 10:03	19.948
88	8/13/2014 10:18	20.234
89	8/13/2014 10:33	20.519
90	8/13/2014 10:48	20.805
91	8/13/2014 11:03	21.091
92	8/13/2014 11:18	21.473
93	8/13/2014 11:33	21.664
94	8/13/2014 11:48	21.855
95	8/13/2014 12:03	22.046
96	8/13/2014 12:18	22.046
97	8/13/2014 12:33	22.238
98	8/13/2014 12:48	23.004
99	8/13/2014 13:03	23.581
100	8/13/2014 13:18	24.062
101	8/13/2014 13:33	24.351
102	8/13/2014 13:48	24.351
103	8/13/2014 14:03	24.738
104	8/13/2014 14:18	25.416
105	8/13/2014 14:33	27.173
106	8/13/2014 14:48	29.053
107	8/13/2014 15:03	30.054
108	8/13/2014 15:18	30.154
109	8/13/2014 15:33	29.252
110	8/13/2014 15:48	28.555
111	8/13/2014 16:03	28.06
112	8/13/2014 16:18	27.075
113	8/13/2014 16:33	26.195
114	8/13/2014 16:48	25.708
115	8/13/2014 17:03	25.319
116	8/13/2014 17:18	24.931
117	8/13/2014 17:33	24.738
118	8/13/2014 17:48	24.545
119	8/13/2014 18:03	24.351
120	8/13/2014 18:18	24.255
121	8/13/2014 18:33	24.255
122	8/13/2014 18:48	24.158
123	8/13/2014 19:03	24.255
124	8/13/2014 19:18	24.351
125	8/13/2014 19:33	24.448
126	8/13/2014 19:48	24.545
127	8/13/2014 20:03	24.641
128	8/13/2014 20:18	24.641
129	8/13/2014 20:33	24.641
130	8/13/2014 20:48	24.641
131	8/13/2014 21:03	24.641
132	8/13/2014 21:18	24.545
133	8/13/2014 21:33	24.448
134	8/13/2014 21:48	24.351
135	8/13/2014 22:03	24.158
136	8/13/2014 22:18	24.062
137	8/13/2014 22:33	23.869
138	8/13/2014 22:48	23.773
139	8/13/2014 23:03	23.677
140	8/13/2014 23:18	23.484
141	8/13/2014 23:33	23.388
142	8/13/2014 23:48	23.292
143	8/14/2014 0:03	23.1
144	8/14/2014 0:18	22.908
145	8/14/2014 0:33	22.717
146	8/14/2014 0:48	22.525
147	8/14/2014 1:03	22.333
148	8/14/2014 1:18	22.142
149	8/14/2014 1:33	21.951
150	8/14/2014 1:48	21.76
151	8/14/2014 2:03	21.569
152	8/14/2014 2:18	21.378
153	8/14/2014 2:33	21.187
154	8/14/2014 2:48	20.996
155	8/14/2014 3:03	20.71
156	8/14/2014 3:18	20.615
157	8/14/2014 3:33	20.424
158	8/14/2014 3:48	20.234
159	8/14/2014 4:03	20.138
160	8/14/2014 4:18	19.948
161	8/14/2014 4:33	19.758
162	8/14/2014 4:48	19.567
163	8/14/2014 5:03	19.472
164	8/14/2014 5:18	19.282
165	8/14/2014 5:33	19.092
166	8/14/2014 5:48	18.901
167	8/14/2014 6:03	18.806
168	8/14/2014 6:18	18.616
169	8/14/2014 6:33	18.521
170	8/14/2014 6:48	18.426
171	8/14/2014 7:03	18.331
172	8/14/2014 7:18	18.331
173	8/14/2014 7:33	18.236
174	8/14/2014 7:48	18.236
175	8/14/2014 8:03	18.331
176	8/14/2014 8:18	18.426
177	8/14/2014 8:33	18.616
178	8/14/2014 8:48	18.901
179	8/14/2014 9:03	19.282
180	8/14/2014 9:18	19.567
181	8/14/2014 9:33	19.948
182	8/14/2014 9:48	20.234
183	8/14/2014 10:03	20.519
184	8/14/2014 10:18	20.901
185	8/14/2014 10:33	21.187
186	8/14/2014 10:48	21.473
187	8/14/2014 11:03	21.091
188	8/14/2014 11:18	21.473
189	8/14/2014 11:33	22.238
190	8/14/2014 11:48	25.125
191	8/14/2014 12:03	27.173
192	8/14/2014 12:18	28.953
193	8/14/2014 12:33	31.472
194	8/14/2014 12:48	33.535
195	8/14/2014 13:03	34.163
196	8/14/2014 13:18	34.585
197	8/14/2014 13:33	35.222
198	8/14/2014 13:48	35.649
199	8/14/2014 14:03	34.903
200	8/14/2014 14:18	34.058
201	8/14/2014 14:33	33.014
202	8/14/2014 14:48	29.053
203	8/14/2014 15:03	21.569
204	8/14/2014 15:18	21.378
205	8/14/2014 15:33	19.282
206	8/14/2014 15:48	19.187
207	8/14/2014 16:03	18.806
208	8/14/2014 16:18	19.092
209	8/14/2014 16:33	19.853
210	8/14/2014 16:48	20.138
211	8/14/2014 17:03	19.853
212	8/14/2014 17:18	19.948
213	8/14/2014 17:33	19.662
214	8/14/2014 17:48	18.711
215	8/14/2014 18:03	18.616
216	8/14/2014 18:18	18.616
217	8/14/2014 18:33	18.426
218	8/14/2014 18:48	18.426
219	8/14/2014 19:03	18.426
220	8/14/2014 19:18	18.426
221	8/14/2014 19:33	18.521
222	8/14/2014 19:48	18.616
223	8/14/2014 20:03	18.426
224	8/14/2014 20:18	18.901
225	8/14/2014 20:33	18.901
226	8/14/2014 20:48	18.901
227	8/14/2014 21:03	18.996
228	8/14/2014 21:18	18.806
229	8/14/2014 21:33	18.806
230	8/14/2014 21:48	18.711
231	8/14/2014 22:03	18.616
232	8/14/2014 22:18	18.616
233	8/14/2014 22:33	18.521
234	8/14/2014 22:48	18.521
235	8/14/2014 23:03	18.236
236	8/14/2014 23:18	18.045
237	8/14/2014 23:33	18.14
238	8/14/2014 23:48	18.331
239	8/15/2014 0:03	18.426
240	8/15/2014 0:18	18.236
241	8/15/2014 0:33	18.236
242	8/15/2014 0:48	18.236
243	8/15/2014 1:03	18.331
244	8/15/2014 1:18	18.331
245	8/15/2014 1:33	18.331
246	8/15/2014 1:48	18.331
247	8/15/2014 2:03	18.331
248	8/15/2014 2:18	18.331
249	8/15/2014 2:33	18.426
250	8/15/2014 2:48	18.426
251	8/15/2014 3:03	18.331
252	8/15/2014 3:18	18.426
253	8/15/2014 3:33	18.426
254	8/15/2014 3:48	18.521
255	8/15/2014 4:03	18.521
256	8/15/2014 4:18	18.616
257	8/15/2014 4:33	18.616
258	8/15/2014 4:48	18.521
259	8/15/2014 5:03	18.521
260	8/15/2014 5:18	18.521
261	8/15/2014 5:33	18.521
262	8/15/2014 5:48	18.521
263	8/15/2014 6:03	18.711
264	8/15/2014 6:18	18.616
265	8/15/2014 6:33	18.711
266	8/15/2014 6:48	18.806
267	8/15/2014 7:03	18.806
268	8/15/2014 7:18	18.806
269	8/15/2014 7:33	18.426
270	8/15/2014 7:48	18.426
271	8/15/2014 8:03	18.426
272	8/15/2014 8:18	18.331
273	8/15/2014 8:33	18.331
274	8/15/2014 8:48	18.331
275	8/15/2014 9:03	18.331
276	8/15/2014 9:18	18.331
277	8/15/2014 9:33	18.331
278	8/15/2014 9:48	18.331
279	8/15/2014 10:03	18.331
280	8/15/2014 10:18	18.331
281	8/15/2014 10:33	18.331
282	8/15/2014 10:48	18.426
283	8/15/2014 11:03	18.331
284	8/15/2014 11:18	18.236
285	8/15/2014 11:33	18.331
286	8/15/2014 11:48	18.331
287	8/15/2014 12:03	18.331
288	8/15/2014 12:18	18.236
289	8/15/2014 12:33	18.236
290	8/15/2014 12:48	18.426
291	8/15/2014 13:03	18.331
292	8/15/2014 13:18	18.426
293	8/15/2014 13:33	18.426
294	8/15/2014 13:48	18.521
295	8/15/2014 14:03	18.521
296	8/15/2014 14:18	18.521
297	8/15/2014 14:33	18.616
298	8/15/2014 14:48	18.616
299	8/15/2014 15:03	18.521
300	8/15/2014 15:18	18.426
301	8/15/2014 15:33	18.521
302	8/15/2014 15:48	18.711
303	8/15/2014 16:03	18.901
304	8/15/2014 16:18	18.996
305	8/15/2014 16:33	18.901
306	8/15/2014 16:48	18.711
307	8/15/2014 17:03	18.521
308	8/15/2014 17:18	18.521
309	8/15/2014 17:33	18.996
310	8/15/2014 17:48	19.472
311	8/15/2014 18:03	19.282
312	8/15/2014 18:18	19.092
313	8/15/2014 18:33	18.045
314	8/15/2014 18:48	17.95
315	8/15/2014 19:03	18.045
316	8/15/2014 19:18	17.95
317	8/15/2014 19:33	18.045
318	8/15/2014 19:48	18.331
319	8/15/2014 20:03	18.711
320	8/15/2014 20:18	18.711
321	8/15/2014 20:33	18.426
322	8/15/2014 20:48	18.426
323	8/15/2014 21:03	18.521
324	8/15/2014 21:18	18.616
325	8/15/2014 21:33	18.616
326	8/15/2014 21:48	18.521
327	8/15/2014 22:03	18.521
328	8/15/2014 22:18	18.426
329	8/15/2014 22:33	18.14
330	8/15/2014 22:48	18.331
331	8/15/2014 23:03	18.14
332	8/15/2014 23:18	18.14
333	8/15/2014 23:33	18.236
334	8/15/2014 23:48	18.14
335	8/16/2014 0:03	18.045
336	8/16/2014 0:18	18.045
337	8/16/2014 0:33	17.95
338	8/16/2014 0:48	18.045
339	8/16/2014 1:03	18.045
340	8/16/2014 1:18	18.045
341	8/16/2014 1:33	18.045
342	8/16/2014 1:48	18.14
343	8/16/2014 2:03	18.14
344	8/16/2014 2:18	18.14
345	8/16/2014 2:33	18.14
346	8/16/2014 2:48	18.045
347	8/16/2014 3:03	18.045
348	8/16/2014 3:18	18.045
349	8/16/2014 3:33	17.95
350	8/16/2014 3:48	17.95
351	8/16/2014 4:03	17.95
352	8/16/2014 4:18	17.95
353	8/16/2014 4:33	18.045
354	8/16/2014 4:48	18.045
355	8/16/2014 5:03	18.236
356	8/16/2014 5:18	18.236
357	8/16/2014 5:33	18.14
358	8/16/2014 5:48	18.426
359	8/16/2014 6:03	18.711
360	8/16/2014 6:18	18.616
361	8/16/2014 6:33	19.092
362	8/16/2014 6:48	18.616
363	8/16/2014 7:03	18.616
364	8/16/2014 7:18	18.331
365	8/16/2014 7:33	18.521
366	8/16/2014 7:48	18.806
367	8/16/2014 8:03	18.236
368	8/16/2014 8:18	18.045
369	8/16/2014 8:33	18.14
370	8/16/2014 8:48	18.236
371	8/16/2014 9:03	18.236
372	8/16/2014 9:18	18.236
373	8/16/2014 9:33	18.236
374	8/16/2014 9:48	18.331
375	8/16/2014 10:03	18.331
376	8/16/2014 10:18	18.331
377	8/16/2014 10:33	18.331
378	8/16/2014 10:48	18.236
379	8/16/2014 11:03	18.236
380	8/16/2014 11:18	18.331
381	8/16/2014 11:33	18.236
382	8/16/2014 11:48	18.426
383	8/16/2014 12:03	18.521
384	8/16/2014 12:18	18.331
385	8/16/2014 12:33	18.045
386	8/16/2014 12:48	18.236
387	8/16/2014 13:03	18.236
388	8/16/2014 13:18	18.236
389	8/16/2014 13:33	18.236
390	8/16/2014 13:48	18.426
391	8/16/2014 14:03	19.282
392	8/16/2014 14:18	18.616
393	8/16/2014 14:33	17.855
394	8/16/2014 14:48	18.045
395	8/16/2014 15:03	18.616
396	8/16/2014 15:18	19.567
397	8/16/2014 15:33	19.567
398	8/16/2014 15:48	18.901
399	8/16/2014 16:03	18.616
400	8/16/2014 16:18	18.426
401	8/16/2014 16:33	18.236
402	8/16/2014 16:48	18.616
403	8/16/2014 17:03	20.424
404	8/16/2014 17:18	20.519
405	8/16/2014 17:33	19.758
406	8/16/2014 17:48	18.806
407	8/16/2014 18:03	19.567
408	8/16/2014 18:18	19.472
409	8/16/2014 18:33	19.187
410	8/16/2014 18:48	19.948
411	8/16/2014 19:03	19.472
412	8/16/2014 19:18	18.426
413	8/16/2014 19:33	18.14
414	8/16/2014 19:48	18.14
415	8/16/2014 20:03	18.426
416	8/16/2014 20:18	19.853
417	8/16/2014 20:33	20.138
418	8/16/2014 20:48	20.138
419	8/16/2014 21:03	20.043
420	8/16/2014 21:18	20.043
421	8/16/2014 21:33	20.043
422	8/16/2014 21:48	19.853
423	8/16/2014 22:03	19.567
424	8/16/2014 22:18	19.758
425	8/16/2014 22:33	19.662
426	8/16/2014 22:48	18.806
427	8/16/2014 23:03	18.14
428	8/16/2014 23:18	18.616
429	8/16/2014 23:33	19.187
430	8/16/2014 23:48	19.092
431	8/17/2014 0:03	17.95
432	8/17/2014 0:18	18.521
433	8/17/2014 0:33	18.236
434	8/17/2014 0:48	18.331
435	8/17/2014 1:03	18.331
436	8/17/2014 1:18	18.711
437	8/17/2014 1:33	18.711
438	8/17/2014 1:48	18.901
439	8/17/2014 2:03	18.711
440	8/17/2014 2:18	18.711
441	8/17/2014 2:33	18.806
442	8/17/2014 2:48	18.806
443	8/17/2014 3:03	18.806
444	8/17/2014 3:18	18.711
445	8/17/2014 3:33	18.806
446	8/17/2014 3:48	18.806
447	8/17/2014 4:03	18.806
448	8/17/2014 4:18	18.806
449	8/17/2014 4:33	18.806
450	8/17/2014 4:48	18.806
451	8/17/2014 5:03	18.711
452	8/17/2014 5:18	18.711
453	8/17/2014 5:33	18.616
454	8/17/2014 5:48	18.616
455	8/17/2014 6:03	18.616
456	8/17/2014 6:18	18.616
457	8/17/2014 6:33	18.616
458	8/17/2014 6:48	18.616
459	8/17/2014 7:03	18.711
460	8/17/2014 7:18	18.711
461	8/17/2014 7:33	18.806
462	8/17/2014 7:48	18.901
463	8/17/2014 8:03	18.806
464	8/17/2014 8:18	18.901
465	8/17/2014 8:33	18.711
466	8/17/2014 8:48	18.236
467	8/17/2014 9:03	18.331
468	8/17/2014 9:18	18.236
469	8/17/2014 9:33	18.045
470	8/17/2014 9:48	18.331
471	8/17/2014 10:03	18.521
472	8/17/2014 10:18	18.711
473	8/17/2014 10:33	18.901
474	8/17/2014 10:48	18.806
475	8/17/2014 11:03	18.901
476	8/17/2014 11:18	18.806
477	8/17/2014 11:33	18.806
478	8/17/2014 11:48	18.711
479	8/17/2014 12:03	18.616
480	8/17/2014 12:18	18.426
481	8/17/2014 12:33	18.045
482	8/17/2014 12:48	18.521
483	8/17/2014 13:03	18.521
484	8/17/2014 13:18	18.521
485	8/17/2014 13:33	18.426
486	8/17/2014 13:48	18.331
487	8/17/2014 14:03	17.76
488	8/17/2014 14:18	18.14
489	8/17/2014 14:33	18.331
490	8/17/2014 14:48	19.853
491	8/17/2014 15:03	18.996
492	8/17/2014 15:18	18.236
493	8/17/2014 15:33	18.331
494	8/17/2014 15:48	18.236
495	8/17/2014 16:03	18.045
496	8/17/2014 16:18	18.236
497	8/17/2014 16:33	18.045
498	8/17/2014 16:48	18.045
499	8/17/2014 17:03	18.14
500	8/17/2014 17:18	18.045
501	8/17/2014 17:33	18.521
502	8/17/2014 17:48	19.567
503	8/17/2014 18:03	19.472
504	8/17/2014 18:18	18.521
505	8/17/2014 18:33	19.377
506	8/17/2014 18:48	19.567
507	8/17/2014 19:03	19.758
508	8/17/2014 19:18	20.138
509	8/17/2014 19:33	20.329
510	8/17/2014 19:48	19.567
511	8/17/2014 20:03	19.377
512	8/17/2014 20:18	19.187
513	8/17/2014 20:33	18.521
514	8/17/2014 20:48	18.901
515	8/17/2014 21:03	19.092
516	8/17/2014 21:18	19.187
517	8/17/2014 21:33	19.092
518	8/17/2014 21:48	18.901
519	8/17/2014 22:03	18.711
520	8/17/2014 22:18	18.616
521	8/17/2014 22:33	18.521
522	8/17/2014 22:48	18.14
523	8/17/2014 23:03	18.045
524	8/17/2014 23:18	18.045
525	8/17/2014 23:33	18.045
526	8/17/2014 23:48	18.045
527	8/18/2014 0:03	17.95
528	8/18/2014 0:18	17.95
529	8/18/2014 0:33	18.426
530	8/18/2014 0:48	18.806
531	8/18/2014 1:03	18.521
532	8/18/2014 1:18	18.616
533	8/18/2014 1:33	18.521
534	8/18/2014 1:48	18.331
535	8/18/2014 2:03	18.521
536	8/18/2014 2:18	18.616
537	8/18/2014 2:33	18.521
538	8/18/2014 2:48	18.616
539	8/18/2014 3:03	18.521
540	8/18/2014 3:18	18.426
541	8/18/2014 3:33	18.426
542	8/18/2014 3:48	18.521
543	8/18/2014 4:03	18.426
544	8/18/2014 4:18	18.426
545	8/18/2014 4:33	18.521
546	8/18/2014 4:48	18.521
547	8/18/2014 5:03	18.426
548	8/18/2014 5:18	18.426
549	8/18/2014 5:33	18.521
550	8/18/2014 5:48	18.426
551	8/18/2014 6:03	18.426
552	8/18/2014 6:18	18.426
553	8/18/2014 6:33	18.331
554	8/18/2014 6:48	18.331
555	8/18/2014 7:03	18.236
556	8/18/2014 7:18	18.331
557	8/18/2014 7:33	18.426
558	8/18/2014 7:48	18.426
559	8/18/2014 8:03	18.521
560	8/18/2014 8:18	18.711
561	8/18/2014 8:33	18.806
562	8/18/2014 8:48	18.996
563	8/18/2014 9:03	18.806
564	8/18/2014 9:18	19.377
565	8/18/2014 9:33	18.901
566	8/18/2014 9:48	18.331
567	8/18/2014 10:03	18.045
568	8/18/2014 10:18	18.045
569	8/18/2014 10:33	18.045
570	8/18/2014 10:48	18.711
571	8/18/2014 11:03	19.092
572	8/18/2014 11:18	19.187
573	8/18/2014 11:33	19.092
574	8/18/2014 11:48	19.092
575	8/18/2014 12:03	19.187
576	8/18/2014 12:18	19.092
577	8/18/2014 12:33	19.092
578	8/18/2014 12:48	19.092
579	8/18/2014 13:03	18.901
580	8/18/2014 13:18	18.616
581	8/18/2014 13:33	18.331
582	8/18/2014 13:48	18.14
583	8/18/2014 14:03	18.331
584	8/18/2014 14:18	18.711
585	8/18/2014 14:33	18.616
586	8/18/2014 14:48	18.331
587	8/18/2014 15:03	17.95
588	8/18/2014 15:18	17.76
589	8/18/2014 15:33	18.236
590	8/18/2014 15:48	18.901
591	8/18/2014 16:03	18.521
592	8/18/2014 16:18	18.426
593	8/18/2014 16:33	18.521
594	8/18/2014 16:48	19.187
595	8/18/2014 17:03	18.806
596	8/18/2014 17:18	17.95
597	8/18/2014 17:33	17.665
598	8/18/2014 17:48	17.665
599	8/18/2014 18:03	18.616
600	8/18/2014 18:18	19.758
601	8/18/2014 18:33	20.043
602	8/18/2014 18:48	19.758
603	8/18/2014 19:03	18.616
604	8/18/2014 19:18	19.092
605	8/18/2014 19:33	19.662
606	8/18/2014 19:48	20.901
607	8/18/2014 20:03	20.805
608	8/18/2014 20:18	20.329
609	8/18/2014 20:33	19.377
610	8/18/2014 20:48	18.996
611	8/18/2014 21:03	18.901
612	8/18/2014 21:18	18.806
613	8/18/2014 21:33	18.806
614	8/18/2014 21:48	18.711
615	8/18/2014 22:03	18.521
616	8/18/2014 22:18	18.521
617	8/18/2014 22:33	18.521
618	8/18/2014 22:48	18.426
619	8/18/2014 23:03	18.616
620	8/18/2014 23:18	18.616
621	8/18/2014 23:33	18.521
622	8/18/2014 23:48	18.616
623	8/19/2014 0:03	18.521
624	8/19/2014 0:18	18.426
625	8/19/2014 0:33	18.426
626	8/19/2014 0:48	18.331
627	8/19/2014 1:03	18.901
628	8/19/2014 1:18	19.092
629	8/19/2014 1:33	18.996
630	8/19/2014 1:48	18.806
631	8/19/2014 2:03	18.996
632	8/19/2014 2:18	18.901
633	8/19/2014 2:33	18.806
634	8/19/2014 2:48	18.521
635	8/19/2014 3:03	18.236
636	8/19/2014 3:18	18.331
637	8/19/2014 3:33	18.14
638	8/19/2014 3:48	18.045
639	8/19/2014 4:03	18.236
640	8/19/2014 4:18	18.045
641	8/19/2014 4:33	18.14
642	8/19/2014 4:48	18.331
643	8/19/2014 5:03	18.521
644	8/19/2014 5:18	18.616
645	8/19/2014 5:33	18.616
646	8/19/2014 5:48	18.616
647	8/19/2014 6:03	18.616
648	8/19/2014 6:18	18.426
649	8/19/2014 6:33	18.426
650	8/19/2014 6:48	18.521
651	8/19/2014 7:03	18.616
652	8/19/2014 7:18	18.711
653	8/19/2014 7:33	18.616
654	8/19/2014 7:48	18.616
655	8/19/2014 8:03	18.616
656	8/19/2014 8:18	18.616
657	8/19/2014 8:33	18.806
658	8/19/2014 8:48	18.996
659	8/19/2014 9:03	19.282
660	8/19/2014 9:18	19.282
661	8/19/2014 9:33	19.472
662	8/19/2014 9:48	18.901
663	8/19/2014 10:03	18.901
664	8/19/2014 10:18	18.616
665	8/19/2014 10:33	18.616
666	8/19/2014 10:48	18.236
667	8/19/2014 11:03	18.14
668	8/19/2014 11:18	17.95
669	8/19/2014 11:33	17.855
670	8/19/2014 11:48	17.76
671	8/19/2014 12:03	19.092
672	8/19/2014 12:18	18.996
673	8/19/2014 12:33	19.187
674	8/19/2014 12:48	19.187
675	8/19/2014 13:03	19.282
676	8/19/2014 13:18	19.377
677	8/19/2014 13:33	19.092
678	8/19/2014 13:48	18.996
679	8/19/2014 14:03	18.521
680	8/19/2014 14:18	18.14
681	8/19/2014 14:33	17.95
682	8/19/2014 14:48	17.855
683	8/19/2014 15:03	17.855
684	8/19/2014 15:18	17.76
685	8/19/2014 15:33	17.76
686	8/19/2014 15:48	17.665
687	8/19/2014 16:03	17.57
688	8/19/2014 16:18	17.57
689	8/19/2014 16:33	17.475
690	8/19/2014 16:48	17.665
691	8/19/2014 17:03	18.616
692	8/19/2014 17:18	18.806
693	8/19/2014 17:33	19.092
694	8/19/2014 17:48	18.14
695	8/19/2014 18:03	17.665
696	8/19/2014 18:18	17.855
697	8/19/2014 18:33	18.806
698	8/19/2014 18:48	19.092
699	8/19/2014 19:03	19.377
700	8/19/2014 19:18	19.377
701	8/19/2014 19:33	19.472
702	8/19/2014 19:48	19.472
703	8/19/2014 20:03	19.092
704	8/19/2014 20:18	18.996
705	8/19/2014 20:33	18.806
706	8/19/2014 20:48	19.187
707	8/19/2014 21:03	19.187
708	8/19/2014 21:18	19.187
709	8/19/2014 21:33	19.092
710	8/19/2014 21:48	19.092
711	8/19/2014 22:03	18.806
712	8/19/2014 22:18	18.331
713	8/19/2014 22:33	18.236
714	8/19/2014 22:48	18.045
715	8/19/2014 23:03	17.475
716	8/19/2014 23:18	18.331
717	8/19/2014 23:33	17.76
718	8/19/2014 23:48	18.14
719	8/20/2014 0:03	18.426
720	8/20/2014 0:18	18.521
721	8/20/2014 0:33	18.616
722	8/20/2014 0:48	18.711
723	8/20/2014 1:03	18.711
724	8/20/2014 1:18	18.711
725	8/20/2014 1:33	18.711
726	8/20/2014 1:48	18.711
727	8/20/2014 2:03	18.711
728	8/20/2014 2:18	18.711
729	8/20/2014 2:33	18.616
730	8/20/2014 2:48	18.521
731	8/20/2014 3:03	18.711
732	8/20/2014 3:18	18.711
733	8/20/2014 3:33	18.521
734	8/20/2014 3:48	18.521
735	8/20/2014 4:03	18.426
736	8/20/2014 4:18	18.426
737	8/20/2014 4:33	18.236
738	8/20/2014 4:48	18.331
739	8/20/2014 5:03	18.331
740	8/20/2014 5:18	18.331
741	8/20/2014 5:33	18.331
742	8/20/2014 5:48	18.331
743	8/20/2014 6:03	18.331
744	8/20/2014 6:18	18.331
745	8/20/2014 6:33	18.331
746	8/20/2014 6:48	18.236
747	8/20/2014 7:03	18.14
748	8/20/2014 7:18	18.236
749	8/20/2014 7:33	18.236
750	8/20/2014 7:48	18.236
751	8/20/2014 8:03	18.236
752	8/20/2014 8:18	18.236
753	8/20/2014 8:33	18.236
754	8/20/2014 8:48	18.236
755	8/20/2014 9:03	18.236
756	8/20/2014 9:18	18.236
757	8/20/2014 9:33	18.14
758	8/20/2014 9:48	18.14
759	8/20/2014 10:03	18.14
760	8/20/2014 10:18	18.236
761	8/20/2014 10:33	18.331
762	8/20/2014 10:48	18.521
763	8/20/2014 11:03	18.426
764	8/20/2014 11:18	18.14
765	8/20/2014 11:33	18.045
766	8/20/2014 11:48	18.045
767	8/20/2014 12:03	18.14
768	8/20/2014 12:18	17.95
769	8/20/2014 12:33	17.855
770	8/20/2014 12:48	17.95
771	8/20/2014 13:03	18.14
772	8/20/2014 13:18	18.14
773	8/20/2014 13:33	18.236
774	8/20/2014 13:48	18.236
775	8/20/2014 14:03	18.331
776	8/20/2014 14:18	18.331
777	8/20/2014 14:33	18.331
778	8/20/2014 14:48	18.331
779	8/20/2014 15:03	18.331
780	8/20/2014 15:18	18.331
781	8/20/2014 15:33	18.331
782	8/20/2014 15:48	18.331
783	8/20/2014 16:03	18.236
784	8/20/2014 16:18	18.236
785	8/20/2014 16:33	18.236
786	8/20/2014 16:48	18.045
787	8/20/2014 17:03	18.331
788	8/20/2014 17:18	17.855
789	8/20/2014 17:33	17.855
790	8/20/2014 17:48	17.855
791	8/20/2014 18:03	17.95
792	8/20/2014 18:18	17.95
793	8/20/2014 18:33	17.855
794	8/20/2014 18:48	17.855
795	8/20/2014 19:03	17.855
796	8/20/2014 19:18	17.855
797	8/20/2014 19:33	17.855
798	8/20/2014 19:48	17.95
799	8/20/2014 20:03	17.855
800	8/20/2014 20:18	18.045
801	8/20/2014 20:33	17.95
802	8/20/2014 20:48	17.95
803	8/20/2014 21:03	18.045
804	8/20/2014 21:18	18.045
805	8/20/2014 21:33	18.236
806	8/20/2014 21:48	18.236
807	8/20/2014 22:03	18.14
808	8/20/2014 22:18	18.045
809	8/20/2014 22:33	17.95
810	8/20/2014 22:48	18.045
811	8/20/2014 23:03	18.045
812	8/20/2014 23:18	18.045
813	8/20/2014 23:33	18.045
814	8/20/2014 23:48	17.95
815	8/21/2014 0:03	17.95
816	8/21/2014 0:18	17.95
817	8/21/2014 0:33	18.045
818	8/21/2014 0:48	17.95
819	8/21/2014 1:03	17.855
820	8/21/2014 1:18	17.855
821	8/21/2014 1:33	17.76
822	8/21/2014 1:48	17.76
823	8/21/2014 2:03	17.76
824	8/21/2014 2:18	17.76
825	8/21/2014 2:33	17.76
826	8/21/2014 2:48	17.76
827	8/21/2014 3:03	17.76
828	8/21/2014 3:18	17.76
829	8/21/2014 3:33	17.76
830	8/21/2014 3:48	17.76
831	8/21/2014 4:03	17.76
832	8/21/2014 4:18	17.76
833	8/21/2014 4:33	17.76
834	8/21/2014 4:48	17.76
835	8/21/2014 5:03	17.76
836	8/21/2014 5:18	17.76
837	8/21/2014 5:33	17.76
838	8/21/2014 5:48	17.76
839	8/21/2014 6:03	17.76
840	8/21/2014 6:18	17.76
841	8/21/2014 6:33	17.76
842	8/21/2014 6:48	17.76
843	8/21/2014 7:03	17.76
844	8/21/2014 7:18	17.76
845	8/21/2014 7:33	17.76
846	8/21/2014 7:48	17.665
847	8/21/2014 8:03	17.76
848	8/21/2014 8:18	17.76
849	8/21/2014 8:33	17.76
850	8/21/2014 8:48	17.665
851	8/21/2014 9:03	17.76
852	8/21/2014 9:18	17.76
853	8/21/2014 9:33	17.76
854	8/21/2014 9:48	17.76
855	8/21/2014 10:03	17.76
856	8/21/2014 10:18	17.76
857	8/21/2014 10:33	17.76
858	8/21/2014 10:48	17.76
859	8/21/2014 11:03	17.855
860	8/21/2014 11:18	17.855
861	8/21/2014 11:33	17.855
862	8/21/2014 11:48	17.95
863	8/21/2014 12:03	18.045
864	8/21/2014 12:18	18.045
865	8/21/2014 12:33	18.045
866	8/21/2014 12:48	18.045
867	8/21/2014 13:03	18.045
868	8/21/2014 13:18	17.95
869	8/21/2014 13:33	17.95
870	8/21/2014 13:48	18.045
871	8/21/2014 14:03	18.331
872	8/21/2014 14:18	18.521
873	8/21/2014 14:33	18.616
874	8/21/2014 14:48	18.711
875	8/21/2014 15:03	18.711
876	8/21/2014 15:18	18.806
877	8/21/2014 15:33	18.806